Location: Bucharest
(44.4268°N, 26.1025°E)
Time: 05:54:45
(UTC+03:00)

CUBESAT XI-V - Visible Passes

Search period start: 28 June 2022 00:00
Search period end: 08 July 2022 00:00
Orbit: 666 x 692 km, 98.1° (Epoch: 27 June)

Date Brightness Start Highest point End Pass type
(mag) Time Alt. Az. Time Alt. Az. Time Alt. Az.
28 Jun ? 02:31:36 23° SE 02:34:13 50° ENE 02:38:40 10° N visible
28 Jun ? 04:10:00 15° WSW 04:11:46 18° W 04:14:56 10° NW visible
29 Jun ? 01:30:36 10° E 01:32:59 14° ENE 01:35:21 10° NNE visible
29 Jun ? 03:07:33 32° S 03:09:41 73° WSW 03:14:17 10° NNW visible
30 Jun ? 02:05:06 15° ESE 02:08:08 28° ENE 02:12:02 10° N visible
30 Jun ? 03:43:29 24° SW 03:45:19 32° W 03:49:27 10° NNW visible
01 Jul ? 02:41:03 27° SE 02:43:26 62° ENE 02:47:59 10° N visible
01 Jul ? 04:19:27 12° WSW 04:21:08 15° W 04:23:41 10° WNW visible
02 Jul ? 01:39:12 10° ESE 01:42:07 17° ENE 01:45:02 10° NNE visible
02 Jul ? 03:17:00 32° SSW 03:18:57 59° W 03:23:30 10° NNW visible
03 Jul ? 02:14:33 18° ESE 02:17:18 34° ENE 02:21:27 10° N visible
03 Jul ? 03:52:57 21° SW 03:54:38 26° W 03:58:29 10° NW visible
04 Jul ? 02:50:30 31° SSE 02:52:40 77° ENE 02:57:16 10° N visible
04 Jul ? 04:28:54 10° WSW 04:30:30 12° W 04:32:06 10° WNW visible
05 Jul ? 01:48:04 11° ESE 01:51:16 20° ENE 01:54:37 10° NNE visible
05 Jul ? 03:26:27 31° SSW 03:28:13 47° W 03:32:40 10° NNW visible
06 Jul ? 02:24:01 22° SE 02:26:30 42° ENE 02:30:49 10° N visible
06 Jul ? 04:02:25 18° WSW 04:03:57 21° W 04:07:27 10° NW visible
07 Jul ? 01:23:39 10° E 01:25:19 12° ENE 01:27:00 10° NE visible
07 Jul ? 02:59:58 35° SSE 03:01:55 87° WSW 03:06:31 10° NNW visible
